Flag for U.S.A. Weather past 2 weeks in Hartford, Connecticut, U.S.A.

Now
82 °F

Sunny.


Feels Like: 82 °F
Forecast: 58 / 84 °F
Wind: 9 mph from Southeast

Location: Hartford-Brainard Airport

Current Time: May 29, 2015 at 5:11:50 PM

Latest Report: May 29, 2015 at 3:53 PM


Visibility: 10 mi

Pressure: 30.22 "Hg

Humidity: 41%

Dew point: 56 °F

Location of HartfordLocation

Historic Weather in Hartford — Graph

°F

Hartford temperature yesterday

Maximum temperature yesterday: 80 °F (at 2:53 PM)
Minimum temperature yesterday: 65 °F (at 4:53 AM)
Average temperature yesterday: 72 °F

Past Weeks' High & Low Weather Summary

 TemperatureHumidityPressure
High87 °F (May 17, 4:53 PM)97% (May 19, 6:53 AM)30.38 "Hg (May 19, 6:53 AM)
Low46 °F (May 15, 4:53 AM)18% (May 14, 6:53 PM)29.74 "Hg (May 19, 6:53 PM)
Average65 °F59%30.11 "Hg
* Reported May 14 3:53 PM — May 29 3:53 PM, Hartford, Weather by CustomWeather, © 2015

Note: Actual official high and low records may vary slightly from our data, if they occured in-between our weather recording intervals... More about our weather records

Advertising

Hartford weather history for previous 24 hours

 ConditionsComfort  
Time TempWeatherWind HumidityBarometerVisibility
3:53 PM
Fri, May 29
82 °FSunny.9 mph41%30.22 "Hg10 mi
2:53 PM81 °FSunny.8 mph42%30.23 "Hg10 mi
1:53 PM80 °FSunny.10 mph44%30.25 "Hg10 mi
12:53 PM79 °FSunny.6 mph47%30.26 "Hg10 mi
11:53 AM76 °FSunny.10 mph52%30.27 "Hg10 mi
10:53 AM74 °FSunny.5 mph60%30.29 "Hg10 mi
9:53 AM71 °FSunny.5 mph61%30.29 "Hg10 mi
8:53 AM69 °FSunny.8 mph63%30.31 "Hg10 mi
7:53 AM65 °FSunny.5 mph70%30.31 "Hg10 mi
6:53 AM61 °FSunny.7 mph81%30.30 "Hg10 mi
5:53 AM57 °FClear.No wind93%30.28 "Hg10 mi
4:53 AM57 °FClear.9 mph87%30.27 "Hg10 mi
3:53 AM60 °FClear.6 mph78%30.26 "Hg10 mi
2:53 AM63 °FClear.5 mph73%30.24 "Hg10 mi
1:53 AM65 °FClear.5 mph66%30.24 "Hg10 mi
12:53 AM66 °FClear.6 mph63%30.24 "Hg10 mi
11:53 PM
Thu, May 28
68 °FClear.6 mph59%30.24 "Hg10 mi
10:53 PM69 °FClear.7 mph57%30.23 "Hg10 mi
9:53 PM71 °FPassing clouds.10 mph55%30.22 "Hg10 mi
8:53 PM74 °FSunny.10 mph53%30.17 "Hg10 mi
7:53 PM76 °FScattered clouds.6 mph72%30.13 "Hg10 mi
6:53 PM77 °FSunny.10 mph71%30.11 "Hg10 mi
5:53 PM77 °FSunny.9 mph69%30.09 "Hg10 mi
Weather by CustomWeather, © 2015

See weather overviewHow to use our weather pages